STARLINK-37763, 69217

Orbit data source: Space-Track

STARLINK-37763, 69217 is a payload satellite owned by SpaceX/Seattle (US) in SSO that was launched on Tue, 26 May 2026 UTC via an FALCON 9 launch vehicle from the Air Force Western Test Range (AFWTR). Payload-class satellites include a variety of spacecraft equipped with specific instruments for various scientific and technological missions. These include communications satellites like Starlink; space stations such as the ISS; scientific satellites like the Hubble; Earth observation satellites from companies like Planet Labs, Umbra, and HawkEye 360; GPS; miniature CubeSats for education and research; and military/defense satellites.

Loading next visibility...
Identifier
69217, 2026-115G
Orbit
SSO
Country
Flag of USUS
Related business
Manufacturer
SpaceX/Seattle
Mission
Operational spacecraft
Bus & Motor
STARLINK V2MO, Unknown motor
Mass
575 kg wet, ~530 kg dry
Launch date (UTC)
2026-05-26 (4 weeks ago)
Launch vehicle
FALCON 9
Launch site
Air Force Western Test Range (AFWTR)
Object type
Payload
Rocket body
Debris
Shape & HBR
Unknown
Radar Cross Section
Large (>1 m²)

Expand to show TLE details & history
Last TLE update: 21 hours ago

TLE from 21 hours ago
0 STARLINK-37763
1 69217U 26115G   26171.03029546  .00041098  00000-0  75267-3 0  9998
2 69217  97.2848 188.3480 0001894 113.2071 246.9380 15.49215164  5111
Epoch: 2026-06-20T00:43Z
TLE epoch observation values (Epoch: 2026-06-20T00:43:37.527Z)
Latitude
-0.00003°
Longitude
-90.80913°
Altitude
422.659 km
Speed
7.657 km/s
True Right ascension
12h 33m 23s
True Declination
0° 00' 00"
Sunlit
Object was in daylight at epoch
Visualization orbit readout
Latitude
Unknown
Longitude
Unknown
Altitude
Unknown
Speed
Unknown
Apparent Right ascension
Unknown
Apparent Declination
Unknown
Sunlit
N/A
Visualization observer readout
Local Sidereal Time
08:32:34
Azimuth
Unknown
Elevation
Unknown
Doppler factor
Unknown
Orbital elements
Apogee altitude
417.229 km
Perigee altitude
414.656 km
Semi-major axis
6,794.08 km
Eccentricity
0.00019
Inclination
97.2848°
RAAN
188.348°
Arg. of periapsis
113.2071°
True anomaly
246.91803°
Mean anomaly
246.938°
Eccentric anomaly
246.92802°
Mean motion
3.87567 °/min
Orbital period
92.89 mins
BSTAR
0.00075267
Loading maneuver chart data...
Computing Atmospheric mass density...
Loading historical data...
Loading historical data...
Loading historical data...
Loading historical data...
Loading historical data...
Loading historical data...
Loading historical data...

Documentation

Showing up to 5 results
|